Location: Carrières
(48.9495°N, 2.0407°E)
Time: 08:49:58
(UTC+00:00)

Cosmos 1241 Rocket - Visible Passes

Search period start: 16 September 2024 00:00
Search period end: 26 September 2024 00:00
Orbit: 932 x 1014 km, 65.8° (Epoch: 15 September)

Date Brightness Start Highest point End Pass type
(mag) Time Alt. Az. Time Alt. Az. Time Alt. Az.
16 Sep 6.0 00:21:12 28° ENE 00:21:12 28° ENE 00:24:15 10° NE visible
16 Sep 5.0 02:05:47 46° NW 02:05:53 46° NW 02:12:04 10° NNE visible
16 Sep 6.3 03:50:35 10° WNW 03:55:12 20° NNW 03:59:53 10° NNE visible
17 Sep 5.6 00:45:26 40° NE 00:45:26 40° NE 00:49:22 10° NE visible
17 Sep 5.6 02:30:01 30° NW 02:31:15 32° NNW 02:36:58 10° NNE visible
17 Sep 6.5 04:16:47 10° NW 04:21:01 18° N 04:25:19 10° NE visible
17 Sep 6.7 23:25:04 14° ENE 23:25:04 14° ENE 23:26:07 10° NE visible
18 Sep 5.3 01:09:40 47° N 01:09:40 47° N 01:14:20 10° NE visible
18 Sep 6.1 02:54:15 19° WNW 02:56:49 24° NNW 03:01:57 10° NNE visible
18 Sep 6.6 04:42:41 10° NW 04:46:54 18° N 04:51:08 10° NE visible
18 Sep 6.4 23:49:17 22° NE 23:49:17 22° NE 23:51:29 10° NE visible
19 Sep 5.4 01:33:52 41° NNW 01:33:52 41° NNW 01:39:14 10° NNE visible
19 Sep 6.4 03:18:27 11° NW 03:22:33 20° NNW 03:27:08 10° NNE visible
20 Sep 6.0 00:13:29 30° NE 00:13:29 30° NE 00:16:34 10° NE visible
20 Sep 5.8 01:58:04 29° NW 01:58:33 30° NNW 02:04:09 10° NNE visible
20 Sep 6.6 03:44:12 10° NW 03:48:23 18° N 03:52:39 10° NE visible
20 Sep 6.9 22:53:04 12° NE 22:53:04 12° NE 22:53:26 10° NE visible
21 Sep 5.8 00:37:39 36° NNE 00:37:39 36° NNE 00:41:30 10° NNE visible
21 Sep 6.2 02:22:15 20° NW 02:24:09 23° NNW 02:29:10 10° NNE visible
21 Sep 6.7 04:10:01 10° NW 04:14:16 18° N 04:18:34 10° NE visible
21 Sep 6.6 23:17:14 18° NE 23:17:14 18° NE 23:18:42 10° NE visible
22 Sep 5.8 01:01:49 35° N 01:01:49 35° N 01:06:24 10° NNE visible
22 Sep 6.5 02:46:24 13° NW 02:49:55 19° NNW 02:54:24 10° NNE visible
22 Sep 6.6 04:35:26 10° NNW 04:40:06 20° NNE 04:44:48 10° ENE visible
22 Sep 6.3 23:41:24 24° NE 23:41:24 24° NE 23:43:45 10° NE visible
23 Sep 6.0 01:25:59 28° NNW 01:25:59 28° NNW 01:31:20 10° NNE visible
23 Sep 6.7 03:11:35 10° NW 03:15:46 18° N 03:20:00 10° NE visible
23 Sep 6.5 05:00:33 10° NNW 05:05:48 25° NNE 05:11:06 10° E visible
24 Sep 6.2 00:05:32 29° NNE 00:05:32 29° NNE 00:08:40 10° NNE visible
24 Sep 6.3 01:50:07 20° NW 01:51:29 22° NNW 01:56:23 10° NNE visible
24 Sep 6.7 03:37:19 10° NW 03:41:38 18° N 03:46:00 10° NE visible
24 Sep 6.8 22:45:06 14° NE 22:45:06 14° NE 22:45:55 10° NE visible
25 Sep 6.1 00:29:41 29° N 00:29:41 29° N 00:33:34 10° NNE visible
25 Sep 6.6 02:14:16 14° NW 02:17:16 19° N 02:21:41 10° NNE visible
25 Sep 6.7 04:02:39 10° NNW 04:07:27 21° NNE 04:12:16 10° ENE visible
25 Sep 6.6 23:09:14 19° NNE 23:09:14 19° NNE 23:10:55 10° NE visible
